TimeCDT,TemperatureF,Dew PointF,Humidity,Sea Level PressureIn,VisibilityMPH,Wind Direction,Wind SpeedMPH,Gust SpeedMPH,PrecipitationIn,Events,Conditions,WindDirDegrees,DateUTC
12:55 AM,53.8,35.6,50,29.90,10.0,SSW,18.4,23.0,N/A,,Clear,210,2012-10-09 05:55:00
1:55 AM,52.7,35.8,53,29.89,10.0,SSW,16.1,23.0,N/A,,Clear,200,2012-10-09 06:55:00
2:55 AM,51.1,36.0,56,29.88,10.0,SSW,11.5,-,N/A,,Clear,200,2012-10-09 07:55:00
3:55 AM,49.3,36.5,61,29.87,10.0,SSW,9.2,-,N/A,,Clear,200,2012-10-09 08:55:00
4:55 AM,48.6,36.5,63,29.87,10.0,SSW,8.1,-,N/A,,Clear,210,2012-10-09 09:55:00
5:55 AM,47.8,36.5,65,29.86,10.0,SSW,8.1,-,N/A,,Clear,210,2012-10-09 10:55:00
6:55 AM,46.6,36.3,67,29.86,10.0,SSW,4.6,-,N/A,,Clear,200,2012-10-09 11:55:00
7:55 AM,46.6,37.0,69,29.87,10.0,SSW,4.6,-,N/A,,Clear,210,2012-10-09 12:55:00
8:55 AM,51.1,39.4,64,29.89,10.0,SSW,8.1,-,N/A,,Clear,210,2012-10-09 13:55:00
9:55 AM,54.7,40.6,59,29.91,10.0,WSW,6.9,-,N/A,,Clear,240,2012-10-09 14:55:00
10:55 AM,58.5,42.3,55,29.91,10.0,WSW,8.1,-,N/A,,Clear,240,2012-10-09 15:55:00
11:55 AM,61.2,42.3,50,29.92,10.0,NNW,9.2,-,N/A,,Clear,340,2012-10-09 16:55:00
12:55 PM,61.2,40.5,47,29.92,10.0,Variable,5.8,-,N/A,,Clear,0,2012-10-09 17:55:00
1:55 PM,61.0,39.6,45,29.93,10.0,North,13.8,23.0,N/A,,Clear,10,2012-10-09 18:55:00
2:55 PM,60.8,42.4,51,29.96,10.0,North,15.0,21.9,N/A,,Overcast,10,2012-10-09 19:55:00
3:55 PM,58.6,42.8,56,29.99,10.0,North,9.2,21.9,N/A,,Overcast,10,2012-10-09 20:55:00
4:55 PM,58.8,39.7,49,30.01,10.0,NNE,15.0,19.6,N/A,,Overcast,20,2012-10-09 21:55:00
5:55 PM,59.2,38.8,47,30.03,10.0,NNE,8.1,-,N/A,,Scattered Clouds,20,2012-10-09 22:55:00
6:55 PM,55.8,32.2,41,30.05,10.0,North,9.2,-,N/A,,Clear,360,2012-10-09 23:55:00
7:55 PM,51.8,25.0,35,30.09,10.0,North,8.1,-,N/A,,Clear,350,2012-10-10 00:55:00
8:55 PM,48.9,25.9,41,30.12,8.0,Calm,Calm,-,N/A,,Clear,0,2012-10-10 01:55:00
9:55 PM,43.2,27.0,53,30.15,10.0,Calm,Calm,-,N/A,,Clear,0,2012-10-10 02:55:00
10:55 PM,41.2,29.3,63,30.17,10.0,Calm,Calm,-,N/A,,Clear,0,2012-10-10 03:55:00
11:55 PM,37.8,30.0,74,30.18,10.0,Calm,Calm,-,N/A,,Clear,0,2012-10-10 04:55:00